[[{"header":{"parameterUnit":"m.s-1","parameterCategory":1,"la1":30.2991,"la2":30.254,"lo1":-89.0895,"lo2":-89.0444,"dy":0.0017,"dx":0.0017,"nx":28,"ny":28,"refTime":"2023-07-18T03:00:00:Z","depth":0,"parameterNumber":2,"parameterNumberName":"U-component_of_WINDS"},"data":[0,0,0,0,0,0,0,0,0,0,0,0,0,0,0,0,0,0,0,0,0,0,0,0,0,0,0,0,0,0,0,0,0,0,0,0,0,0,0,0,0,0,0,0,0,0,0,0,0,0,0,0,0,0,0,0,0,0,0.0122,0.0123,0,0.024,0.0241,0.0242,0.0325,0.0326,0.0326,0.0327,0.0448,0.045,0.0453,0,0,0,0,0,0,0,0,0,0,0,0,0,-0.0032,-0.003,0.0122,0.0123,0.0125,0.024,0.0241,0.0243,0.0325,0.0326,0.0327,0.0327,0.0447,0.045,0.0453,0,0,0,0,0,0,0,0,0,0,0,0,0,0.0055,-0.0029,0.0122,0.018,0.0186,0.0239,0.0241,0.0243,0.0325,0.0326,0.0327,0.0328,0.0446,0.045,0.0454,0.0458,0,0,0.0466,0.0467,0,0,0,0,0,0,0,0,0.005,0.0061,0.017,0.0176,0.0183,0.0269,0.0231,0.0315,0.0325,0.0272,0.0327,0.0328,0.0387,0.0396,0.0416,0.0464,0.0469,0.0466,0.0468,0.047,0.0471,0,0,0,0,0,0,0,0.0044,0.0056,0.0169,0.0171,0.0179,0.02,0.0213,0.0248,0.0323,0.0277,0.0283,0.0296,0.0391,0.0412,0.042,0.0471,0.0466,0.0469,0.0472,0.0473,0.0528,0.0527,0,0,0,0,0,0,0.0029,0.005,0.0165,0.0172,0.0118,0.0202,0.0217,0.024,0.0323,0.0336,0.0295,0.0299,0.0405,0.0415,0.0424,0.0434,0.047,0.0474,0.0476,0.0529,0.0527,0.0526,0,0,0,0,0,0,0.0025,0.0038,0.016,0.0113,0.013,0.0203,0.0229,0.0242,0.0263,0.0337,0.035,0.0302,0.0406,0.0419,0.0449,0.044,0.0475,0.0479,0.053,0.0528,0.0527,0.0455,0,0,0,0,0,0,0.002,0.0036,0.0039,0.0112,0.0132,0.0183,0.0229,0.0244,0.027,0.0276,0.0347,0.036,0.0408,0.0443,0.0453,0.0446,0.0482,0.0531,0.0529,0.0527,0.0458,0.0451,0.0445,0,0,0,0,0,0.0015,0.0014,0.0039,0.0052,0.0137,0.0182,0.0193,0.0249,0.0269,0.0272,0.0319,0.0358,0.0439,0.0445,0.0457,0.0451,0.0532,0.0529,0.0528,0.0461,0.0452,0.0445,0,0,0,0,0,0,-0.0062,0.0025,0.0053,0.0076,0.0121,0.0196,0.0201,0.0238,0.0278,0.0282,0.0349,0.0365,0.0388,0.0423,0.0428,0.046,0.049,0.049,0.0436,0.0428,0.0421,0.0412,0.0485,0,0,0,0,0,-0.0076,-0.0047,0.0028,0.0041,0.0062,0.0127,0.0149,0.0188,0.0237,0.0256,0.0306,0.0352,0.0388,0.041,0.0447,0.0464,0.048,0.0466,0.0459,0.0453,0.0452,0.0462,0.0457,0.052,0.052,0.052,0,0,-0.0106,-0.0054,-0.004,0.0027,0.0066,0.0094,0.0143,0.0171,0.0193,0.0261,0.0292,0.0329,0.0385,0.0408,0.0421,0.0438,0.0438,0.0451,0.0445,0.0448,0.046,0.0454,0.0448,0.0518,0.0519,0.0519,0,0,-0.0144,-0.0102,-0.0087,-0.0049,0.001,0.0054,0.0057,0.0126,0.0154,0.0186,0.0237,0.0264,0.0325,0.0362,0.0389,0.0364,0.0401,0.0374,0.0339,0.0348,0.0343,0.0339,0.0329,0.0324,0.0373,0.0373,0.0373,0,-0.0188,-0.0143,-0.0084,-0.0059,-0.0031,0.0031,0.0047,0.0081,0.0149,0.0166,0.0185,0.0262,0.0304,0.0336,0.0329,0.035,0.0355,0.0366,0.0339,0.0336,0.0333,0.0323,0.0319,0.037,0.037,0.037,0.0371,0,-0.02,-0.017,-0.0165,-0.0101,-0.0073,-0.0053,0.0009,0.0031,0.0067,0.0108,0.014,0.0192,0.0241,0.0252,0.0288,0.0289,0.0297,0.0326,0.0358,0.0322,0.0314,0.0311,0.0364,0.0366,0.0367,0.0368,0,0,-0.0285,-0.0189,-0.0188,-0.0159,-0.009,-0.0065,-0.0043,0.0005,0.0021,0.0066,0.0086,0.0136,0.0163,0.0193,0.0234,0.0242,0.0217,0.027,0.0273,0.0257,0.022,0.0196,0.0191,0.0242,0.0242,0.0241,0.0214,0,-0.0314,-0.027,-0.0216,-0.0191,-0.0162,-0.0102,-0.0083,-0.0039,0.0001,0.003,0.0074,0.0108,0.0142,0.016,0.0171,0.0217,0.021,0.022,0.0261,0.0261,0.0243,0.0187,0.0163,0.0135,0.0212,0.0212,0.0211,0,-0.0342,-0.0302,-0.0274,-0.0207,-0.0194,-0.0177,-0.013,-0.0102,-0.0051,-0.0023,0.0011,0.0054,0.0081,0.011,0.0147,0.0152,0.0172,0.0197,0.0198,0.0202,0.0233,0.0189,0.0128,0.0123,0.0208,0.0208,0.0208,0,-0.0409,-0.0346,-0.0322,-0.0298,-0.022,-0.021,-0.0177,-0.0125,-0.01,-0.0059,-0.0043,0.0001,0.0025,0.0058,0.0111,0.0128,0.0142,0.0176,0.0165,0.0163,0.0164,0.0163,0.0103,0.0179,0.0179,0.0179,0.0179,0,-0.0448,-0.0434,-0.0351,-0.0336,-0.0318,-0.0256,-0.024,-0.0202,-0.0156,-0.0133,-0.0078,-0.0057,0.0013,0.0042,0.0084,0.0107,0.0118,0.0141,0.0152,0.0135,0.0132,0.0148,0.0151,0.0178,0.0178,0.0179,0.0179,0,-0.052,-0.0463,-0.0433,-0.0361,-0.0343,-0.0334,-0.0272,-0.0256,-0.0213,-0.0185,-0.0175,-0.0108,-0.0072,-0.0014,0.0039,0.0068,0.0083,0.0102,0.0065,0.0072,0.0057,0.0057,0.0004,-0.0,0.0079,0.0078,0.0078,0,-0.0549,-0.0537,-0.0464,-0.0445,-0.0414,-0.0383,-0.0358,-0.0296,-0.0272,-0.0213,-0.0204,-0.0163,-0.0128,-0.0072,-0.002,0.0021,0.0041,0.002,0.0047,0.003,0.0039,0.0037,0.0038,0.0012,0.0011,0.001,0.001,0,-0.0608,-0.0581,-0.0546,-0.0502,-0.0474,-0.0436,-0.0396,-0.0383,-0.0313,-0.0289,-0.0251,-0.0223,-0.0169,-0.013,-0.0081,-0.0048,-0.0008,0.0001,0.0,-0.0018,-0.004,-0.003,0.0046,0.0001,0.0002,0.0003,0.0003,0.0003,-0.066,-0.0647,-0.0594,-0.0558,-0.0521,-0.0484,-0.0466,-0.0421,-0.0388,-0.0339,-0.0305,-0.027,-0.0219,-0.015,-0.0119,-0.0091,-0.0073,-0.0074,-0.0074,-0.0075,-0.0082,-0.0043,-0.0081,-0.0081,-0.0081,-0.0081,-0.008,0,-0.0718,-0.0681,-0.0648,-0.0593,-0.0565,-0.0529,-0.0483,-0.0462,-0.0431,-0.0387,-0.0353,-0.0311,-0.0272,-0.0217,-0.0174,-0.0163,-0.0144,-0.0154,-0.0155,-0.0148,-0.01,-0.0104,-0.017,-0.017,-0.017,-0.017,-0.017,-0.017,-0.0744,-0.072,-0.0687,-0.0644,-0.0606,-0.0572,-0.0548,-0.0515,-0.048,-0.0434,-0.0402,-0.0366,-0.0318,-0.0272,-0.0235,-0.022,-0.0207,-0.0224,-0.0203,-0.0159,-0.0151,-0.0143,-0.0147,-0.0221,-0.0221,-0.0254,-0.0254,-0.0254]},{"header":{"parameterUnit":"m.s-1","parameterCategory":1,"la1":30.2991,"la2":30.254,"lo1":-89.0895,"lo2":-89.0444,"dy":0.0017,"dx":0.0017,"nx":28,"ny":28,"refTime":"2023-07-18T03:00:00:Z","depth":0,"parameterNumber":3,"parameterNumberName":"V-component_of_WINDS"},"data":[0,0,0,0,0,0,0,0,0,0,0,0,0,0,0,0,0,0,0,0,0,0,0,0,0,0,0,0,0,0,0,0,0,0,0,0,0,0,0,0,0,0,0,0,0,0,0,0,0,0,0,0,0,0,0,0,0,0,4.7466,4.7466,0,4.74,4.7399,4.7398,4.7351,4.7351,4.7351,4.735,4.7276,4.7275,4.7273,0,0,0,0,0,0,0,0,0,0,0,0,0,4.7547,4.7546,4.7466,4.7466,4.7465,4.74,4.7399,4.7398,4.7352,4.7351,4.7351,4.735,4.7277,4.7275,4.7273,0,0,0,0,0,0,0,0,0,0,0,0,0,4.75,4.7546,4.7467,4.7434,4.743,4.74,4.7399,4.7398,4.7352,4.7351,4.7351,4.735,4.7277,4.7275,4.7273,4.7268,0,0,4.7265,4.7264,0,0,0,0,0,0,0,0,4.7502,4.7497,4.744,4.7436,4.7432,4.7384,4.74,4.7354,4.7352,4.7381,4.735,4.735,4.7312,4.7307,4.7295,4.7265,4.7261,4.7265,4.7263,4.7262,4.7262,0,0,0,0,0,0,0,4.7506,4.7499,4.744,4.7439,4.7434,4.7421,4.7413,4.7392,4.735,4.7379,4.7375,4.7368,4.731,4.7298,4.7293,4.726,4.7265,4.7263,4.7261,4.726,4.7222,4.7222,0,0,0,0,0,0,4.7515,4.7502,4.7442,4.7438,4.7467,4.742,4.7411,4.74,4.735,4.7343,4.7369,4.7366,4.7302,4.7296,4.729,4.7282,4.7262,4.726,4.7259,4.7221,4.7222,4.7223,0,0,0,0,0,0,4.7517,4.751,4.7445,4.7469,4.746,4.7419,4.7406,4.7399,4.7386,4.7343,4.7335,4.7364,4.7302,4.7294,4.7274,4.7278,4.7259,4.7257,4.7221,4.7222,4.7222,4.7264,0,0,0,0,0,0,4.752,4.7511,4.751,4.747,4.7459,4.7432,4.7406,4.7398,4.7383,4.7379,4.7337,4.7329,4.73,4.7278,4.7272,4.7275,4.7255,4.722,4.7221,4.7222,4.7262,4.7266,4.727,0,0,0,0,0,4.7523,4.7523,4.7511,4.7503,4.7457,4.7432,4.7426,4.7395,4.7384,4.7381,4.7354,4.733,4.7279,4.7277,4.7269,4.7271,4.722,4.7221,4.7222,4.7261,4.7266,4.727,0,0,0,0,0,0,4.7563,4.7518,4.7503,4.7491,4.7466,4.7424,4.7421,4.7401,4.7377,4.7374,4.7335,4.7325,4.731,4.7288,4.7286,4.7264,4.7247,4.7246,4.7279,4.7283,4.7286,4.7292,4.7253,0,0,0,0,0,4.7572,4.7557,4.7517,4.751,4.7498,4.7462,4.745,4.7428,4.74,4.7389,4.7359,4.7331,4.7309,4.7294,4.7271,4.7259,4.7248,4.7257,4.726,4.7264,4.7263,4.7255,4.7258,4.7226,4.7226,4.7226,0,0,4.7587,4.756,4.7553,4.7517,4.7496,4.748,4.7453,4.7437,4.7425,4.7385,4.7366,4.7343,4.7309,4.7294,4.7285,4.7275,4.727,4.7265,4.7268,4.7266,4.7256,4.7259,4.7262,4.7227,4.7227,4.7226,0,0,4.7607,4.7586,4.7578,4.7558,4.7526,4.7502,4.75,4.7461,4.7445,4.7426,4.7396,4.7379,4.7341,4.7318,4.7302,4.7314,4.7291,4.7307,4.7326,4.7319,4.7321,4.7323,4.7327,4.7329,4.7307,4.7308,4.7308,0,4.763,4.7607,4.7576,4.7563,4.7547,4.7514,4.7504,4.7485,4.7446,4.7436,4.7426,4.7378,4.7353,4.7331,4.7334,4.7322,4.7317,4.7312,4.7324,4.7325,4.7327,4.733,4.7332,4.731,4.7309,4.7309,4.7309,0,4.7637,4.7621,4.7618,4.7584,4.7568,4.7557,4.7523,4.751,4.749,4.7467,4.7446,4.7415,4.7385,4.7378,4.7357,4.7353,4.7348,4.7332,4.7313,4.7333,4.7335,4.7336,4.7313,4.7312,4.7311,4.7311,0,0,4.768,4.763,4.763,4.7614,4.7577,4.7563,4.7549,4.7522,4.7512,4.7486,4.7473,4.7443,4.7427,4.7408,4.7384,4.7378,4.7389,4.7362,4.736,4.7368,4.7382,4.7395,4.7397,4.7374,4.7374,4.7375,4.7385,0,4.7695,4.7671,4.7643,4.7628,4.7613,4.758,4.7568,4.7543,4.7521,4.7503,4.7477,4.7456,4.7438,4.7426,4.7418,4.739,4.7391,4.7388,4.736,4.736,4.737,4.7398,4.7412,4.7423,4.7386,4.7386,4.7386,0,4.7708,4.7687,4.7671,4.7636,4.7628,4.7618,4.7591,4.7575,4.7545,4.7529,4.7509,4.7484,4.7466,4.7451,4.7425,4.7424,4.741,4.7395,4.7394,4.739,4.7374,4.7395,4.7426,4.7428,4.7387,4.7387,4.7387,0,4.7741,4.7708,4.7695,4.7682,4.764,4.7634,4.7616,4.7586,4.7572,4.7547,4.7537,4.751,4.7495,4.7474,4.7442,4.7434,4.7419,4.7401,4.7404,4.7405,4.7403,4.7403,4.7432,4.7395,4.7395,4.7395,4.7395,0,4.776,4.7752,4.7709,4.7701,4.769,4.7657,4.7647,4.7625,4.7599,4.7585,4.7554,4.7541,4.75,4.7481,4.7455,4.7438,4.7431,4.7417,4.741,4.7419,4.7421,4.741,4.7408,4.7395,4.7395,4.7395,4.7395,0,4.7795,4.7767,4.775,4.7712,4.7703,4.7696,4.7663,4.7653,4.7629,4.7611,4.7605,4.7567,4.7544,4.751,4.7475,4.7458,4.7444,4.7433,4.7455,4.7451,4.7456,4.7456,4.7478,4.7479,4.7442,4.7442,4.7443,0,4.7809,4.7802,4.7765,4.7754,4.7738,4.772,4.7706,4.7673,4.7659,4.7625,4.7619,4.7594,4.7572,4.7535,4.7503,4.7476,4.7464,4.7474,4.746,4.747,4.7464,4.7465,4.7464,4.7477,4.7478,4.7478,4.7479,0,4.7837,4.7823,4.7805,4.7782,4.7766,4.7745,4.7723,4.7716,4.7677,4.7663,4.764,4.7623,4.7589,4.7564,4.7533,4.7512,4.7488,4.7484,4.7483,4.7492,4.7505,4.7498,4.7464,4.7483,4.7483,4.7482,4.7482,4.7482,4.7861,4.7854,4.7826,4.7807,4.7787,4.7768,4.7756,4.7732,4.7713,4.7684,4.7665,4.7643,4.7613,4.757,4.755,4.7531,4.7521,4.752,4.7519,4.752,4.7523,4.7509,4.7525,4.7524,4.7524,4.7524,4.7524,0,4.7887,4.7868,4.7851,4.7822,4.7806,4.7788,4.7763,4.775,4.7732,4.7707,4.7687,4.766,4.7635,4.7602,4.7575,4.7566,4.7554,4.7559,4.756,4.7555,4.7533,4.7537,4.7569,4.7569,4.7569,4.7569,4.7569,4.7569,4.7898,4.7885,4.7868,4.7844,4.7825,4.7805,4.7792,4.7773,4.7753,4.7725,4.7706,4.7685,4.7656,4.7627,4.7603,4.7593,4.7584,4.7593,4.758,4.7561,4.7557,4.7553,4.7556,4.7592,4.7592,4.7604,4.7604,4.7604]}]]